sat.trackr.live / text

‹ back to catalog

STEP CUBE LAB-II

NORAD 52897 · 2022-065D

PAYLOAD ACTIVE UNKNOWN

§ Identity

Operator
Country
SKOR
Launch date
2022-06-21
Launch site
NSC
Launch vehicle
Mass (kg)
RCS (m²)

External: N2YO · Heavens-Above · Gunter

§ Orbital elements

Epoch: 2026-09-20T22:20:36.638304Z

Period
98.40 min
Inclination
98.2368°
Eccentricity
0.0009878
Mean motion
14.63425873 rev/d
Perigee alt
675.2 km
Apogee alt
689.1 km
Semi-major
7,060.3 km
B*
1.1301e-4
RAAN
47.6221°
Arg perigee
85.4691°
Mean anomaly
274.7639°
Rev number
22,550

§ Raw data

STEP CUBE LAB-II1 52897U 22065D   26263.93097961  .00000537  00000+0  11301-3 0  99922 52897  98.2368  47.6221 0009878  85.4691 274.7639 14.63425873225501

JSON: /api/v1/satellites/52897 · /tle

For live sub-satellite position, see the globe view (requires WebGL).

§ Visibility from observer

Set your observer location to see the next 7 days of passes ≥ 10°. The values pass through the URL so the page stays shareable.

No JS? Fill the form by hand. The geolocation button needs JavaScript.

§ Radio — SatNOGS DB

ModeDescriptionDownlinkUplink
GMSK Mode U - GMSK 9600 AX.25 437.485 MHz

1 transmitter · refreshed weekly from db.satnogs.org